GW3657 Weather Reports


Display with metric or nautical units.
time (UTC)temp
F
wind
direction
speed
MPH
gust
MPH
rain 1hr
in
rain 24hr
in
rain mn
in
humidity
%
barometer
mb
20260508021544 51 0 0.0 1.0 0.00 0.00 0.00 90 1014.3
20260508020048 52 0 0.0 3.0 0.00 0.00 0.00 90 1014.3
20260508014550 52 217 1.0 3.0 0.00 0.00 0.00 90 1014.1
20260508013056 52 248 0.0 0.0 0.00 0.00 0.00 90 1014.3
20260508011549 52 0 0.0 0.0 0.00 0.00 0.00 90 1014.3
20260508010053 52 0 0.0 0.0 0.00 0.00 0.00 89 1014.3
20260508004546 52 0 0.0 0.0 0.00 0.00 0.00 88 1014.4
20260508003045 52 0 0.0 0.0 0.00 0.00 0.00 87 1014.3
20260508001549 53 0 0.0 0.0 0.00 0.00 0.00 87 1014.3
20260508000048 54 0 0.0 0.0 0.00 0.00 0.00 85 1014.3
20260507234551 53 0 0.0 0.0 0.00 0.04 0.00 87 1014.5
20260507233047 54 0 0.0 0.0 0.00 0.04 0.00 85 1014.7
20260507231542 54 0 0.0 0.0 0.00 0.04 0.00 86 1014.8
20260507230046 55 0 0.0 0.0 0.00 0.04 0.00 83 1014.6
20260507224549 56 0 0.0 0.0 0.00 0.06 0.00 81 1014.6
20260507223050 56 0 0.0 0.0 0.00 0.06 0.00 82 1014.6
20260507221545 56 0 0.0 0.0 0.00 0.06 0.00 82 1014.5
20260507220049 56 0 0.0 0.0 0.00 0.06 0.00 81 1014.4
20260507214550 56 344 0.0 4.0 0.00 0.07 0.06 81 1014.2
20260507213050 57 0 0.0 0.0 0.00 0.07 0.06 79 1014.1
20260507211547 58 0 1.0 5.0 0.00 0.07 0.06 77 1014.0
20260507210049 58 156 1.0 4.0 0.00 0.07 0.06 77 1013.9
20260507204552 59 9 1.0 5.0 0.00 0.07 0.06 75 1013.9
20260507203044 59 119 3.0 8.0 0.00 0.07 0.06 76 1013.9
20260507201550 59 176 2.0 12.0 0.00 0.07 0.06 76 1013.9
20260507200052 59 139 2.0 5.0 0.00 0.07 0.06 76 1013.6
20260507194550 59 0 0.0 3.0 0.00 0.07 0.06 76 1013.5
20260507193047 59 207 2.0 5.0 0.00 0.07 0.06 75 1013.3
20260507191608 60 294 1.0 4.0 0.00 0.07 0.06 72 1013.0
20260507190045 61 350 0.0 7.0 0.00 0.07 0.06 66 1012.7
20260507184557 62 133 5.0 15.0 0.00 0.07 0.06 66 1012.6
20260507183047 62 142 7.0 14.0 0.00 0.07 0.06 66 1012.6
20260507181546 62 142 7.0 14.0 0.00 0.07 0.06 65 1012.4
20260507180046 63 88 7.0 15.0 0.00 0.07 0.06 65 1012.4
20260507174548 64 160 7.0 16.0 0.00 0.16 0.06 63 1012.2
20260507173053 64 134 9.0 16.0 0.00 0.16 0.06 60 1012.2
20260507171549 65 177 8.0 16.0 0.00 0.16 0.06 60 1012.2
20260507170050 65 97 7.0 16.0 0.00 0.16 0.06 61 1012.1
20260507164559 66 144 9.0 14.0 0.00 0.22 0.06 58 1012.1
20260507163044 67 122 6.0 14.0 0.00 0.22 0.06 59 1012.1
20260507161549 66 126 7.0 15.0 0.00 0.22 0.06 65 1012.0
20260507160052 65 133 9.0 15.0 0.00 0.22 0.06 65 1012.0
20260507154547 67 105 8.0 14.0 0.00 0.39 0.06 65 1012.0
20260507153050 67 154 7.0 12.0 0.00 0.39 0.06 61 1011.9
20260507151546 68 165 5.0 9.0 0.00 0.39 0.06 61 1011.9
20260507150048 69 109 3.0 8.0 0.00 0.39 0.06 56 1011.9
20260507144547 68 82 2.0 8.0 0.00 0.39 0.06 57 1011.9
20260507143100 69 135 5.0 11.0 0.00 0.39 0.06 55 1012.0
20260507141607 69 0 3.0 6.0 0.00 0.39 0.06 56 1012.1
20260507140053 69 311 2.0 8.0 0.00 0.39 0.06 57 1012.3
20260507134555 69 55 1.0 10.0 0.00 0.39 0.06 60 1012.5
20260507133046 68 0 1.0 5.0 0.00 0.39 0.06 56 1012.8
20260507131557 67 69 3.0 9.0 0.00 0.39 0.06 58 1012.8
20260507130047 66 56 4.0 9.0 0.00 0.39 0.06 63 1012.9
20260507124542 65 313 5.0 10.0 0.00 0.39 0.06 61 1013.0
20260507123050 65 98 4.0 12.0 0.00 0.39 0.06 62 1013.1
20260507121545 66 340 2.0 6.0 0.00 0.39 0.06 61 1013.3
20260507120045 64 27 2.0 9.0 0.00 0.39 0.06 64 1013.5
20260507114551 64 275 5.0 9.0 0.00 0.39 0.06 65 1013.6
20260507113048 64 185 0.0 6.0 0.00 0.39 0.06 64 1013.7
20260507111547 63 53 3.0 11.0 0.00 0.39 0.06 67 1013.8
20260507110050 63 110 1.0 8.0 0.00 0.39 0.06 68 1014.1
20260507104557 62 325 3.0 11.0 0.00 0.39 0.06 70 1014.1
20260507103043 61 313 7.0 9.0 0.00 0.39 0.06 70 1014.2
20260507101550 62 19 3.0 10.0 0.00 0.39 0.06 70 1014.2
20260507100054 61 82 4.0 8.0 0.00 0.39 0.06 74 1014.2
20260507094549 61 5 0.0 4.0 0.00 0.39 0.06 74 1014.3
20260507093044 59 322 1.0 5.0 0.00 0.39 0.06 78 1014.3
20260507091548 58 295 1.0 3.0 0.00 0.39 0.06 81 1014.4
20260507090057 57 137 0.0 4.0 0.00 0.39 0.06 84 1014.2
20260507084552 57 233 2.0 5.0 0.00 0.39 0.06 85 1014.3
20260507083046 56 293 0.0 4.0 0.00 0.39 0.06 87 1014.1
20260507081553 56 269 2.0 4.0 0.00 0.39 0.06 87 1014.1
20260507080041 55 0 0.0 0.0 0.00 0.39 0.06 89 1014.0
20260507074545 55 0 0.0 0.0 0.00 0.39 0.06 90 1014.0
20260507073044 54 0 0.0 0.0 0.00 0.39 0.06 91 1014.0
20260507071542 54 0 0.0 3.0 0.00 0.39 0.06 92 1013.9
20260507070047 53 9 3.0 5.0 0.00 0.39 0.06 92 1013.8
20260507064613 53 5 2.0 4.0 0.00 0.39 0.06 92 1013.7
20260507063044 53 15 2.0 5.0 0.00 0.39 0.06 92 1013.6
20260507061547 53 24 2.0 4.0 0.00 0.39 0.06 93 1013.6
20260507060108 54 348 1.0 4.0 0.00 0.39 0.06 93 1013.4
20260507054554 54 0 0.0 0.0 0.00 0.40 0.06 93 1013.3
20260507053044 53 0 0.0 0.0 0.00 0.40 0.06 92 1013.0
20260507051559 53 0 0.0 0.0 0.00 0.40 0.06 92 1012.5
20260507050050 53 0 0.0 0.0 0.00 0.40 0.06 92 1012.3
20260507044543 53 0 0.0 0.0 0.00 0.40 0.06 91 1012.3
20260507043045 53 0 0.0 1.0 0.00 0.40 0.06 92 1012.1
20260507041544 53 326 0.0 3.0 0.00 0.40 0.06 91 1012.0
20260507040049 53 300 1.0 3.0 0.00 0.40 0.06 90 1011.9
20260507034549 53 263 3.0 6.0 0.00 0.40 0.06 90 1012.0
20260507033051 54 280 3.0 5.0 0.00 0.40 0.06 90 1011.9
20260507031549 54 0 2.0 6.0 0.00 0.40 0.06 90 1011.8
20260507030050 55 0 0.0 2.0 0.00 0.40 0.06 91 1011.7
20260507024547 55 180 0.0 5.0 0.00 0.40 0.06 91 1011.7
20260507023050 55 211 3.0 7.0 0.00 0.40 0.06 90 1011.8